When you browse on this site, cookies collect data to enhance your experience and personalize the content and advertising you see.
Visit our Privacy Policy to learn more. By continuing to use the site, you agree to this use of cookies and data.
  • In Romania
  • List of Countries
  • For 7 days
  • Water Temperature
  • Satellite Maps
  • Weather Map
  • Weather Widgets
  • user-avatar
    Login

    Hourly Weather Shahabad

    Today, 18 February, Monday

    Time Temperature Precipitation Wind Pressure Humidity
    00:00 +12°C° 0 mm 2 mps 735 mmHg 85%
    01:00 +12°C° 0 mm 1 mps 735 mmHg 84%
    02:00 +12°C° 0 mm 1 mps 735 mmHg 84%
    03:00 +12°C° 0 mm 1 mps 735 mmHg 80%
    04:00 +13°C° 0 mm 1 mps 735 mmHg 77%
    05:00 +13°C° 0 mm 1 mps 734 mmHg 75%
    06:00 +14°C° 0 mm 1 mps 734 mmHg 74%
    07:00 +15°C° 0 mm 1 mps 735 mmHg 74%
    08:00 +15°C° 0 mm 1 mps 735 mmHg 73%
    09:00 +18°C° 0 mm 1 mps 735 mmHg 66%
    10:00 +20°C° 0 mm 1 mps 735 mmHg 59%
    11:00 +22°C° 0 mm 1 mps 735 mmHg 52%
    12:00 +22°C° 0 mm 1 mps 735 mmHg 51%
    13:00 +23°C° 0 mm 1 mps 734 mmHg 51%
    14:00 +23°C° 0 mm 1 mps 734 mmHg 50%
    15:00 +22°C° 0.1 mm 1 mps 733 mmHg 57%
    16:00 +21°C° 0.1 mm 1 mps 733 mmHg 64%
    17:00 +18°C° 0 mm 0 mps 732 mmHg 70%
    18:00 +19°C° 0 mm 1 mps 732 mmHg 70%
    19:00 +17°C° 0 mm 2 mps 732 mmHg 71%
    20:00 +17°C° 0 mm 3 mps 732 mmHg 71%
    21:00 +16°C° 0 mm 3 mps 733 mmHg 73%
    22:00 +14°C° 0 mm 3 mps 733 mmHg 75%
    23:00 +13°C° 0 mm 3 mps 733 mmHg 77%

    Tomorrow, 19 February, Tuesday

    Time Temperature Precipitation Wind Pressure Humidity
    00:00 +14°C° 0.2 mm 2 mps 733 mmHg 80%
    01:00 +13°C° 0.2 mm 2 mps 733 mmHg 83%
    02:00 +12°C° 0.2 mm 1 mps 734 mmHg 86%
    03:00 +12°C° 0.2 mm 1 mps 734 mmHg 88%
    04:00 +12°C° 0.2 mm 1 mps 734 mmHg 89%
    05:00 +12°C° 0.2 mm 1 mps 735 mmHg 91%
    06:00 +12°C° 0 mm 2 mps 735 mmHg 88%
    07:00 +13°C° 0 mm 2 mps 736 mmHg 86%
    08:00 +14°C° 0 mm 2 mps 737 mmHg 84%
    09:00 +16°C° 0 mm 3 mps 737 mmHg 77%
    10:00 +18°C° 0 mm 3 mps 738 mmHg 71%
    11:00 +20°C° 0 mm 4 mps 739 mmHg 64%
    12:00 +21°C° 0 mm 4 mps 738 mmHg 63%
    13:00 +22°C° 0 mm 4 mps 738 mmHg 62%
    14:00 +22°C° 0 mm 4 mps 738 mmHg 61%
    15:00 +22°C° 0 mm 3 mps 738 mmHg 66%
    16:00 +21°C° 0 mm 2 mps 738 mmHg 71%
    17:00 +21°C° 0 mm 1 mps 738 mmHg 76%
    18:00 +20°C° 0 mm 1 mps 738 mmHg 76%
    19:00 +19°C° 0 mm 1 mps 739 mmHg 77%
    20:00 +16°C° 0 mm 0 mps 739 mmHg 78%
    21:00 +18°C° 0.1 mm 1 mps 740 mmHg 78%
    22:00 +17°C° 0.1 mm 2 mps 740 mmHg 78%
    23:00 +17°C° 0.1 mm 3 mps 740 mmHg 78%

    Day after tomorrow, 20 February, Wednesday

    Time Temperature Precipitation Wind Pressure Humidity
    00:00 +17°C° 0 mm 3 mps 740 mmHg 74%
    01:00 +17°C° 0 mm 3 mps 739 mmHg 69%
    02:00 +17°C° 0 mm 3 mps 739 mmHg 64%
    03:00 +16°C° 0 mm 2 mps 739 mmHg 62%
    04:00 +16°C° 0 mm 2 mps 739 mmHg 60%
    05:00 +16°C° 0 mm 1 mps 739 mmHg 58%
    06:00 +16°C° 0 mm 2 mps 739 mmHg 61%
    07:00 +16°C° 0 mm 2 mps 739 mmHg 64%
    08:00 +16°C° 0 mm 2 mps 740 mmHg 67%
    09:00 +18°C° 0.1 mm 2 mps 740 mmHg 65%
    10:00 +19°C° 0.1 mm 2 mps 741 mmHg 63%
    11:00 +21°C° 0.1 mm 2 mps 741 mmHg 61%
    12:00 +21°C° 0 mm 2 mps 741 mmHg 61%
    13:00 +22°C° 0 mm 3 mps 740 mmHg 61%
    14:00 +22°C° 0 mm 3 mps 740 mmHg 60%
    15:00 +21°C° 0.2 mm 3 mps 740 mmHg 68%
    16:00 +20°C° 0.2 mm 3 mps 740 mmHg 75%
    17:00 +18°C° 0.2 mm 3 mps 740 mmHg 83%
    18:00 +18°C° 0.2 mm 4 mps 740 mmHg 83%
    19:00 +17°C° 0.2 mm 4 mps 741 mmHg 83%
    20:00 +16°C° 0.2 mm 5 mps 741 mmHg 83%
    21:00 +16°C° 0 mm 5 mps 741 mmHg 81%
    22:00 +16°C° 0 mm 5 mps 741 mmHg 79%
    23:00 +16°C° 0 mm 6 mps 740 mmHg 77%

    21 February, Thursday

    Time Temperature Precipitation Wind Pressure Humidity
    00:00 +16°C° 0 mm 6 mps 740 mmHg 70%
    01:00 +16°C° 0 mm 6 mps 739 mmHg 64%
    02:00 +16°C° 0 mm 6 mps 739 mmHg 57%
    03:00 +16°C° 0 mm 6 mps 739 mmHg 56%
    04:00 +16°C° 0 mm 5 mps 739 mmHg 54%
    05:00 +16°C° 0 mm 5 mps 738 mmHg 53%
    06:00 +17°C° 0 mm 4 mps 739 mmHg 58%
    07:00 +17°C° 0 mm 4 mps 740 mmHg 64%
    08:00 +17°C° 0 mm 4 mps 740 mmHg 69%
    09:00 +19°C° 0 mm 5 mps 740 mmHg 65%
    10:00 +21°C° 0 mm 5 mps 741 mmHg 62%
    11:00 +23°C° 0 mm 6 mps 741 mmHg 58%
    12:00 +23°C° 0 mm 6 mps 740 mmHg 58%
    13:00 +24°C° 0 mm 6 mps 740 mmHg 58%
    14:00 +24°C° 0 mm 6 mps 739 mmHg 58%
    15:00 +23°C° 0 mm 5 mps 738 mmHg 63%
    16:00 +22°C° 0 mm 4 mps 738 mmHg 68%
    17:00 +21°C° 0 mm 3 mps 738 mmHg 74%
    18:00 +20°C° 0 mm 3 mps 738 mmHg 74%
    19:00 +19°C° 0 mm 3 mps 739 mmHg 75%
    20:00 +18°C° 0 mm 2 mps 739 mmHg 75%
    21:00 +18°C° 0 mm 2 mps 739 mmHg 73%
    22:00 +18°C° 0 mm 2 mps 739 mmHg 71%
    23:00 +17°C° 0 mm 2 mps 739 mmHg 69%

    22 February, Friday

    Time Temperature Precipitation Wind Pressure Humidity
    00:00 +18°C° 0.3 mm 1 mps 739 mmHg 73%
    01:00 +16°C° 0.3 mm 1 mps 739 mmHg 77%
    02:00 +16°C° 0.3 mm 1 mps 739 mmHg 80%
    03:00 +16°C° 0.2 mm 1 mps 739 mmHg 82%
    04:00 +15°C° 0.2 mm 1 mps 739 mmHg 84%
    05:00 +15°C° 0.2 mm 1 mps 738 mmHg 85%
    06:00 +16°C° 0 mm 1 mps 739 mmHg 83%
    07:00 +18°C° 0 mm 1 mps 739 mmHg 82%
    08:00 +16°C° 0 mm 0 mps 740 mmHg 80%
    09:00 +18°C° 0 mm 0 mps 740 mmHg 73%
    10:00 +22°C° 0 mm 1 mps 740 mmHg 66%
    11:00 +23°C° 0 mm 1 mps 741 mmHg 59%
    12:00 +24°C° 0.3 mm 1 mps 740 mmHg 59%
    13:00 +24°C° 0.3 mm 1 mps 739 mmHg 59%
    14:00 +25°C° 0.3 mm 2 mps 739 mmHg 59%
    15:00 +24°C° 0.1 mm 2 mps 738 mmHg 65%
    16:00 +23°C° 0.1 mm 2 mps 738 mmHg 70%
    17:00 +21°C° 0.1 mm 2 mps 738 mmHg 76%
    18:00 +19°C° 0 mm 2 mps 738 mmHg 79%
    19:00 +18°C° 0 mm 2 mps 739 mmHg 82%
    20:00 +16°C° 0 mm 2 mps 739 mmHg 85%
    21:00 +16°C° 0 mm 2 mps 739 mmHg 86%
    22:00 +15°C° 0 mm 2 mps 739 mmHg 87%
    23:00 +15°C° 0 mm 2 mps 739 mmHg 87%

    23 February, Saturday

    Time Temperature Precipitation Wind Pressure Humidity
    00:00 +14°C° 0 mm 2 mps 739 mmHg 88%
    01:00 +14°C° 0 mm 2 mps 739 mmHg 89%
    02:00 +14°C° 0 mm 2 mps 738 mmHg 90%
    03:00 +13°C° 0 mm 2 mps 738 mmHg 90%
    04:00 +13°C° 0 mm 2 mps 738 mmHg 90%
    05:00 +13°C° 0 mm 2 mps 738 mmHg 90%
    06:00 +13°C° 0 mm 2 mps 738 mmHg 87%
    07:00 +14°C° 0 mm 2 mps 738 mmHg 85%
    08:00 +15°C° 0 mm 2 mps 739 mmHg 82%
    09:00 +17°C° 0 mm 2 mps 739 mmHg 76%
    10:00 +19°C° 0 mm 2 mps 739 mmHg 70%
    11:00 +21°C° 0 mm 2 mps 739 mmHg 63%
    12:00 +21°C° 0 mm 2 mps 738 mmHg 61%
    13:00 +23°C° 0 mm 2 mps 738 mmHg 58%
    14:00 +24°C° 0 mm 2 mps 737 mmHg 56%
    15:00 +23°C° 0 mm 2 mps 737 mmHg 61%
    16:00 +21°C° 0 mm 2 mps 737 mmHg 67%
    17:00 +20°C° 0 mm 2 mps 736 mmHg 72%
    18:00 +18°C° 0 mm 2 mps 737 mmHg 74%
    19:00 +17°C° 0 mm 2 mps 737 mmHg 75%
    20:00 +15°C° 0 mm 2 mps 737 mmHg 77%
    21:00 +15°C° 0 mm 2 mps 737 mmHg 78%
    22:00 +14°C° 0 mm 2 mps 737 mmHg 79%
    23:00 +13°C° 0 mm 2 mps 737 mmHg 80%
    Show more